Regional Weather Roundup
Issued by NWS

Home | Current Version | Previous Version | Text Only | Print | Product List | Glossary On
Versions: 1 2 3 4 5 6 7 8 9 10 11 12 13 14 15 16 17 18 19 20 21 22 23 24 25 26 27 28 29 30 31 32 33 34 35 36 37 38 39 40 41 42 43 44 45 46 47 48 49 50
000
ASUS45 KTFX 231210
RWRMT
MONTANA REGIONAL WEATHER ROUNDUP
NATIONAL WEATHER SERVICE GREAT FALLS MT
600 AM MDT SAT MAY 23 2015

NOTE: "FAIR" INDICATES FEW OR NO CLOUDS BELOW 12000 FEET WITH NO
SIGNIFICANT WEATHER AND/OR OBSTRUCTIONS TO VISIBILITY.

MTZ001>007-043-231300-
WEST OF THE DIVIDE

CITY           SKY/WX    TMP DP  RH WIND       PRES   REMARKS
KALISPELL      SUNNY     43  35  73 N5        30.00R
MISSOULA       PTCLDY    45  38  76 CALM      30.00R
BUTTE          MOCLDY    40  37  89 CALM      30.03S
MULLAN PASS    PTCLDY    49  31  49 CALM      30.06S
DEER LODGE       N/A     45  39  81 CALM      30.06S
EUREKA           N/A     41  34  75 CALM      30.05R
HAMILTON         N/A     45  41  87 S5        29.99R
LIBBY            N/A     43  36  75 CALM      30.02S
RONAN            N/A     48  39  71 CALM      30.03R
THOMPSON FALLS   N/A     42  37  82 CALM      30.03R
$$

MTZ008-052>055-231300-
SOUTHWEST MONTANA

CITY           SKY/WX    TMP DP  RH WIND       PRES   REMARKS
BOZEMAN        CLOUDY    47  44  90 SE5       29.99S
DILLON         MOCLDY    46  42  86 E5        29.98S
W YELLOWSTONE  CLOUDY    45  39  81 NE10      29.99S
THREE FORKS      N/A     50  29  44 CALM      29.98S
TWIN BRIDGES     N/A     50  40  68 N8        29.97S
$$

MTZ009-010-012-014-046-048-049-054-231300-
EAST SLOPES AND CENTRAL MONTANA

CITY           SKY/WX    TMP DP  RH WIND       PRES   REMARKS
CUT BANK       PTCLDY    42  37  82 CALM      30.07R
GREAT FALLS    CLOUDY    48  43  82 N6        30.03R
MALMSTROM AFB  LGT RAIN  50  46  87 N9        30.04R
HELENA         CLOUDY    52  43  71 W8        30.00R
CONRAD           N/A     44  43  97 CALM      30.08R
$$

MTZ011-013-016-021-045-047-050-051-231300-
NORTH CENTRAL MONTANA

CITY           SKY/WX    TMP DP  RH WIND       PRES   REMARKS
HAVRE          CLOUDY    52  46  80 E7        30.02S
LEWISTOWN      CLOUDY    49  46  90 E3        30.03R
N BAR RANCH    CLOUDY    46  46 100 CALM      30.05R
CHINOOK          N/A     55  48  76 E3        30.04R
FORT BENTON      N/A     54  50  87 NW3       30.03R
$$

MTZ017>020-022>027-061-062-231300-
NORTHEAST MONTANA

CITY           SKY/WX    TMP DP  RH WIND       PRES   REMARKS
GLASGOW        CLOUDY    54  41  61 E10       30.05R
JORDAN           N/A     50  42  74 NE7       30.02R
SIDNEY         PTCLDY    45  37  76 N3        30.12R
WOLF POINT     PTCLDY    49  40  71 E7        30.09R
MALTA            N/A     56  45  66 N6        30.01R
PLENTYWOOD       N/A     50  37  62 NE6       30.12S
SCOBEY           N/A     45  31  58 E2        30.09S
$$

MTZ028>42-056>058-231300-
SOUTHCENTRAL AND SOUTHEAST MONTANA

CITY           SKY/WX    TMP DP  RH WIND       PRES   REMARKS
BAKER          MOCLDY    41  38  89 SE12      30.07S
BILLINGS       CLOUDY    50  45  83 NE8       29.97R
LIVINGSTON     CLOUDY    49  45  86 N5        29.99S
MILES CITY     PTCLDY    45  39  79 NE6       30.02R
BIG TIMBER       N/A     48  46  93 N3        30.01S
FORSYTH          N/A     45  43  93 CALM      30.00S
LAUREL           N/A     51  42  71 N1        29.96S
ROUNDUP          N/A     50  42  73 NE2       29.92R
$$

REGIONAL REPORTS...DAKOTAS

CITY           SKY/WX    TMP DP  RH WIND       PRES   REMARKS
WILLISTON      CLEAR     46  38  73 N6        30.12R
MINOT          CLEAR     49  40  71 S3        30.14R
DICKINSON      PTCLDY    40  37  89 E7        30.11R
BEACH          FAIR      43  43 100 SE9       30.10R
CROSBY         FAIR      48  41  76 S9        30.14R
WATFORD CITY   FAIR      41  36  81 N3        30.11R
BISMARCK       CLEAR     46  43  89 CALM      30.17S
GRAND FORKS    MOSUNNY   49  42  77 S6        30.14R
FARGO          SUNNY     53  46  77 S7        30.19R
BUFFALO SD       N/A     44  41  89 E10       30.00S
RAPID CITY     CLOUDY    47  44  90 SE10      30.06R
$$

REGIONAL REPORTS...WYOMING/IDAHO/WASHINGTON

CITY           SKY/WX    TMP DP  RH WIND       PRES   REMARKS
GILLETTE       CLOUDY    46  44  93 SE8       29.98F
SHERIDAN       CLOUDY    46  43  89 NW3       29.97R
BUFFALO WY     CLOUDY    45  44  97 SE7       29.97S
CODY           CLOUDY    48  46  93 NE5       29.97R
YELLOWSTONE LA   N/A     38  36  92 N5        30.02F
IDAHO FALLS    CLOUDY    50  47  89 CALM      29.92S
SALMON         MOCLDY    43  43 100 CALM      29.96R
BOISE          MOCLDY    54  50  86 W5        29.89S
SPOKANE        PTCLDY    54  49  83 CALM      29.97R
$$

REGIONAL REPORTS...ALBERTA

CITY           SKY/WX    TMP DP  RH WIND       PRES   REMARKS
EDMONTON       CLEAR     45  32  61 CALM      30.09R
CALGARY        PTCLDY    39  27  60 VRB2      30.12R
LETHBRIDGE     PTCLDY    39  36  87 W6        30.08R
MEDICINE HAT   CLEAR     45  36  70 CALM      30.08R
$$

REGIONAL REPORTS...SASKATCHEWAN

CITY           SKY/WX    TMP DP  RH WIND       PRES   REMARKS
SWIFT CURRENT  PTCLDY    48  34  57 SE8       30.09R
REGINA         MOCLDY    50  39  66 E9        30.12R
SASKATOON      MOCLDY    45  37  76 SW3       30.10R
$$


USA.gov is the U.S. government's official web portal to all federal, state and local government web resources and services.